Time,TemperatureF,DewpointF,PressureIn,WindDirection,WindDirectionDegrees,WindSpeedMPH,WindSpeedGustMPH,Humidity,HourlyPrecipIn,Conditions,Clouds,dailyrainin,SoftwareType,DateUTC
2013-01-20 00:05:00,28.9,22.6,17.72,South,185,0.0,0.0,77,0.00,,,0.00,VWS V14.00,2013-01-20 08:05:00,
2013-01-20 00:10:00,28.9,22.6,17.72,South,186,0.0,0.0,77,0.00,,,0.00,VWS V14.00,2013-01-20 08:10:00,
2013-01-20 00:15:00,28.8,22.5,17.72,South,186,0.0,0.0,77,0.00,,,0.00,VWS V14.00,2013-01-20 08:15:00,
2013-01-20 00:20:00,28.8,22.5,17.72,South,185,0.0,0.0,77,0.00,,,0.00,VWS V14.00,2013-01-20 08:20:00,
2013-01-20 00:26:00,28.8,22.5,17.72,South,185,0.0,0.0,77,0.00,,,0.00,VWS V14.00,2013-01-20 08:26:00,
2013-01-20 00:31:00,28.6,22.3,17.72,South,185,0.0,0.0,77,0.00,,,0.00,VWS V14.00,2013-01-20 08:31:00,
2013-01-20 00:37:00,28.8,22.5,17.72,South,185,0.0,0.0,77,0.00,,,0.00,VWS V14.00,2013-01-20 08:37:00,
2013-01-20 00:42:00,28.6,22.3,17.72,South,186,0.0,0.0,77,0.00,,,0.00,VWS V14.00,2013-01-20 08:42:00,
2013-01-20 00:48:00,28.8,22.5,17.72,South,185,0.0,0.0,77,0.00,,,0.00,VWS V14.00,2013-01-20 08:48:00,
2013-01-20 00:53:00,28.8,22.5,17.72,South,185,0.0,0.0,77,0.00,,,0.00,VWS V14.00,2013-01-20 08:53:00,
2013-01-20 00:59:00,28.6,22.3,17.72,South,185,0.0,0.0,77,0.00,,,0.00,VWS V14.00,2013-01-20 08:59:00,
2013-01-20 01:05:00,28.6,22.3,17.72,South,186,0.0,0.0,77,0.00,,,0.00,VWS V14.00,2013-01-20 09:05:00,
2013-01-20 01:10:00,28.8,22.5,17.72,South,185,0.0,0.0,77,0.00,,,0.00,VWS V14.00,2013-01-20 09:10:00,
2013-01-20 01:16:00,28.8,22.5,17.72,South,185,0.0,0.0,77,0.00,,,0.00,VWS V14.00,2013-01-20 09:16:00,
2013-01-20 01:21:00,28.9,22.6,17.72,South,186,0.0,0.0,77,0.00,,,0.00,VWS V14.00,2013-01-20 09:21:00,
2013-01-20 01:26:00,28.8,22.5,17.72,South,186,0.0,0.0,77,0.00,,,0.00,VWS V14.00,2013-01-20 09:26:00,
2013-01-20 01:31:00,28.8,22.5,17.72,South,185,0.0,0.0,77,0.00,,,0.00,VWS V14.00,2013-01-20 09:31:00,
2013-01-20 01:36:00,28.6,22.3,17.72,South,186,0.0,0.0,77,0.00,,,0.00,VWS V14.00,2013-01-20 09:36:00,
2013-01-20 01:41:00,28.6,22.3,17.72,South,186,0.0,0.0,77,0.00,,,0.00,VWS V14.00,2013-01-20 09:41:00,
2013-01-20 01:47:00,28.6,22.3,17.72,South,185,0.0,0.0,77,0.00,,,0.00,VWS V14.00,2013-01-20 09:47:00,
2013-01-20 01:52:00,28.4,22.1,17.72,South,186,0.0,0.0,77,0.00,,,0.00,VWS V14.00,2013-01-20 09:52:00,
2013-01-20 01:57:00,28.4,22.1,17.72,South,186,0.0,0.0,77,0.00,,,0.00,VWS V14.00,2013-01-20 09:57:00,
2013-01-20 02:02:00,28.4,22.1,17.72,South,185,0.0,0.0,77,0.00,,,0.00,VWS V14.00,2013-01-20 10:02:00,
2013-01-20 02:08:00,28.4,22.1,17.72,South,185,0.0,0.0,77,0.00,,,0.00,VWS V14.00,2013-01-20 10:08:00,
2013-01-20 02:13:00,28.4,22.1,17.72,South,186,0.0,0.0,77,0.00,,,0.00,VWS V14.00,2013-01-20 10:13:00,
2013-01-20 02:19:00,28.4,22.1,17.72,South,185,0.0,0.0,77,0.00,,,0.00,VWS V14.00,2013-01-20 10:19:00,
2013-01-20 02:24:00,28.4,22.1,17.72,South,186,0.0,0.0,77,0.00,,,0.00,VWS V14.00,2013-01-20 10:24:00,
2013-01-20 02:30:00,28.4,22.1,17.72,South,186,0.0,0.0,77,0.00,,,0.00,VWS V14.00,2013-01-20 10:30:00,
2013-01-20 02:35:00,28.4,22.1,17.72,South,185,0.0,0.0,77,0.00,,,0.00,VWS V14.00,2013-01-20 10:35:00,
2013-01-20 02:41:00,28.6,22.3,17.72,South,186,0.0,0.0,77,0.00,,,0.00,VWS V14.00,2013-01-20 10:41:00,
2013-01-20 02:47:00,28.6,22.3,17.72,South,185,0.0,0.0,77,0.00,,,0.00,VWS V14.00,2013-01-20 10:47:00,
2013-01-20 02:52:00,28.6,22.3,17.72,South,185,0.0,0.0,77,0.00,,,0.00,VWS V14.00,2013-01-20 10:52:00,
2013-01-20 02:58:00,28.8,22.5,17.72,South,186,0.0,0.0,77,0.00,,,0.00,VWS V14.00,2013-01-20 10:58:00,
2013-01-20 03:04:00,28.8,22.5,17.72,South,186,0.0,0.0,77,0.00,,,0.00,VWS V14.00,2013-01-20 11:04:00,
2013-01-20 03:09:00,28.8,22.5,17.72,South,185,0.0,0.0,77,0.00,,,0.00,VWS V14.00,2013-01-20 11:09:00,
2013-01-20 03:15:00,28.8,22.5,17.72,South,185,0.0,0.0,77,0.00,,,0.00,VWS V14.00,2013-01-20 11:15:00,
2013-01-20 03:20:00,28.8,22.5,17.72,South,185,0.0,0.0,77,0.00,,,0.00,VWS V14.00,2013-01-20 11:20:00,
2013-01-20 03:26:00,28.8,22.5,17.72,South,186,0.0,0.0,77,0.00,,,0.00,VWS V14.00,2013-01-20 11:26:00,
2013-01-20 03:32:00,28.6,22.3,17.72,South,185,0.0,3.1,77,0.00,,,0.00,VWS V14.00,2013-01-20 11:32:00,
2013-01-20 03:37:00,28.6,22.3,17.72,South,185,0.0,0.0,77,0.00,,,0.00,VWS V14.00,2013-01-20 11:37:00,
2013-01-20 03:43:00,28.6,22.3,17.72,South,186,0.0,0.0,77,0.00,,,0.00,VWS V14.00,2013-01-20 11:43:00,
2013-01-20 03:48:00,28.6,22.3,17.72,South,185,0.0,0.0,77,0.00,,,0.00,VWS V14.00,2013-01-20 11:48:00,
2013-01-20 03:54:00,28.6,22.3,17.72,South,186,0.0,0.0,77,0.00,,,0.00,VWS V14.00,2013-01-20 11:54:00,
2013-01-20 04:00:00,28.4,22.1,17.72,South,186,0.0,0.0,77,0.00,,,0.00,VWS V14.00,2013-01-20 12:00:00,
2013-01-20 04:05:00,28.4,22.1,17.72,South,186,0.0,0.0,77,0.00,,,0.00,VWS V14.00,2013-01-20 12:05:00,
2013-01-20 04:10:00,28.2,22.0,17.72,East,81,0.0,0.0,77,0.00,,,0.00,VWS V14.00,2013-01-20 12:10:00,
2013-01-20 04:16:00,28.2,22.0,17.72,East,81,0.0,0.0,77,0.00,,,0.00,VWS V14.00,2013-01-20 12:16:00,
2013-01-20 04:22:00,28.2,22.0,17.72,East,81,0.0,0.0,77,0.00,,,0.00,VWS V14.00,2013-01-20 12:22:00,
2013-01-20 04:27:00,28.0,21.8,17.72,NNE,24,2.2,2.2,77,0.00,,,0.00,VWS V14.00,2013-01-20 12:27:00,
2013-01-20 04:33:00,28.0,21.8,17.72,NNE,24,0.0,0.0,77,0.00,,,0.00,VWS V14.00,2013-01-20 12:33:00,
2013-01-20 04:39:00,27.9,21.6,17.72,NNE,24,0.0,0.0,77,0.00,,,0.00,VWS V14.00,2013-01-20 12:39:00,
2013-01-20 04:44:00,27.9,21.6,17.72,NNE,24,0.0,2.7,77,0.00,,,0.00,VWS V14.00,2013-01-20 12:44:00,
2013-01-20 04:50:00,27.9,21.6,17.72,NNE,24,0.0,0.0,77,0.00,,,0.00,VWS V14.00,2013-01-20 12:50:00,
2013-01-20 04:55:00,27.9,21.6,17.72,NNE,24,0.0,0.0,77,0.00,,,0.00,VWS V14.00,2013-01-20 12:55:00,
2013-01-20 05:01:00,27.9,21.6,17.72,NNE,24,0.0,0.0,77,0.00,,,0.00,VWS V14.00,2013-01-20 13:01:00,
2013-01-20 05:06:00,27.7,21.4,17.72,NNE,24,0.0,0.0,77,0.00,,,0.00,VWS V14.00,2013-01-20 13:06:00,
2013-01-20 05:12:00,27.7,21.4,17.72,NNE,24,0.0,0.0,77,0.00,,,0.00,VWS V14.00,2013-01-20 13:12:00,
2013-01-20 05:18:00,27.7,21.4,17.72,NNE,24,0.0,0.0,77,0.00,,,0.00,VWS V14.00,2013-01-20 13:18:00,
2013-01-20 05:23:00,27.5,21.2,17.72,NNE,24,0.0,0.0,77,0.00,,,0.00,VWS V14.00,2013-01-20 13:23:00,
2013-01-20 05:28:00,27.5,21.2,17.72,NNE,24,0.0,0.0,77,0.00,,,0.00,VWS V14.00,2013-01-20 13:28:00,
2013-01-20 05:33:00,27.5,21.2,17.72,NNE,24,0.0,0.0,77,0.00,,,0.00,VWS V14.00,2013-01-20 13:33:00,
2013-01-20 05:39:00,27.5,21.2,17.72,NNE,24,0.0,0.0,77,0.00,,,0.00,VWS V14.00,2013-01-20 13:39:00,
2013-01-20 05:44:00,27.3,21.1,17.72,NNE,24,0.0,0.0,77,0.00,,,0.00,VWS V14.00,2013-01-20 13:44:00,
2013-01-20 05:50:00,27.3,21.1,17.72,NNE,24,0.0,0.0,77,0.00,,,0.00,VWS V14.00,2013-01-20 13:50:00,
2013-01-20 05:56:00,27.3,21.1,17.72,NNE,24,0.0,0.0,77,0.00,,,0.00,VWS V14.00,2013-01-20 13:56:00,
2013-01-20 06:02:00,27.3,21.1,17.72,NNE,24,0.0,0.0,77,0.00,,,0.00,VWS V14.00,2013-01-20 14:02:00,
2013-01-20 06:08:00,27.3,21.1,17.72,NNE,24,0.0,0.0,77,0.00,,,0.00,VWS V14.00,2013-01-20 14:08:00,
2013-01-20 06:14:00,27.3,21.1,17.72,NNE,24,0.0,0.0,77,0.00,,,0.00,VWS V14.00,2013-01-20 14:14:00,
2013-01-20 06:19:00,27.3,21.1,17.72,NNE,24,0.0,0.0,77,0.00,,,0.00,VWS V14.00,2013-01-20 14:19:00,
2013-01-20 06:25:00,27.1,20.9,17.72,NNE,24,0.0,0.0,77,0.00,,,0.00,VWS V14.00,2013-01-20 14:25:00,
2013-01-20 06:30:00,27.1,20.9,17.72,NNE,24,0.0,0.0,77,0.00,,,0.00,VWS V14.00,2013-01-20 14:30:00,
2013-01-20 06:36:00,27.3,21.1,17.72,NNE,24,0.0,0.0,77,0.00,,,0.00,VWS V14.00,2013-01-20 14:36:00,
2013-01-20 06:42:00,27.3,21.1,17.72,NNE,24,0.0,0.0,77,0.00,,,0.00,VWS V14.00,2013-01-20 14:42:00,
2013-01-20 06:47:00,27.1,20.9,17.72,NNE,24,0.0,0.0,77,0.00,,,0.00,VWS V14.00,2013-01-20 14:47:00,
2013-01-20 06:53:00,27.1,20.9,17.72,NNE,24,0.0,0.0,77,0.00,,,0.00,VWS V14.00,2013-01-20 14:53:00,
2013-01-20 06:58:00,27.0,20.7,17.72,NNE,24,0.0,0.0,77,0.00,,,0.00,VWS V14.00,2013-01-20 14:58:00,
2013-01-20 07:03:00,27.0,20.7,17.72,NNE,24,0.0,0.0,77,0.00,,,0.00,VWS V14.00,2013-01-20 15:03:00,
2013-01-20 07:08:00,27.0,20.7,17.72,NNE,24,0.0,0.0,77,0.00,,,0.00,VWS V14.00,2013-01-20 15:08:00,
2013-01-20 07:14:00,27.0,20.7,17.72,NNE,24,0.0,0.0,77,0.00,,,0.00,VWS V14.00,2013-01-20 15:14:00,
2013-01-20 07:20:00,27.0,20.7,17.72,NNE,24,0.0,0.0,77,0.00,,,0.00,VWS V14.00,2013-01-20 15:20:00,
2013-01-20 07:25:00,27.0,20.7,17.72,NNE,24,0.0,0.0,77,0.00,,,0.00,VWS V14.00,2013-01-20 15:25:00,
2013-01-20 07:31:00,27.0,20.7,17.72,NNE,24,0.0,0.0,77,0.00,,,0.00,VWS V14.00,2013-01-20 15:31:00,
2013-01-20 07:36:00,27.0,20.7,17.72,NNE,24,0.0,0.0,77,0.00,,,0.00,VWS V14.00,2013-01-20 15:36:00,
2013-01-20 07:41:00,27.0,20.7,17.72,NNE,24,0.0,0.0,77,0.00,,,0.00,VWS V14.00,2013-01-20 15:41:00,
2013-01-20 07:46:00,26.8,20.5,17.72,NNE,24,0.0,0.0,77,0.00,,,0.00,VWS V14.00,2013-01-20 15:46:00,
2013-01-20 07:52:00,26.8,20.5,17.72,NNE,24,0.0,0.0,77,0.00,,,0.00,VWS V14.00,2013-01-20 15:52:00,
2013-01-20 07:57:00,26.8,20.5,17.72,NNE,24,0.0,0.0,77,0.00,,,0.00,VWS V14.00,2013-01-20 15:57:00,
2013-01-20 08:03:00,26.8,20.5,17.72,NNE,24,0.0,0.0,77,0.00,,,0.00,VWS V14.00,2013-01-20 16:03:00,
2013-01-20 08:08:00,26.8,20.5,17.72,NNE,24,0.0,0.0,77,0.00,,,0.00,VWS V14.00,2013-01-20 16:08:00,
2013-01-20 08:14:00,26.8,20.5,17.72,NNE,24,0.0,0.0,77,0.00,,,0.00,VWS V14.00,2013-01-20 16:14:00,
2013-01-20 08:19:00,27.0,20.7,17.72,NNE,24,0.0,0.0,77,0.00,,,0.00,VWS V14.00,2013-01-20 16:19:00,
2013-01-20 08:24:00,27.0,20.7,17.72,NNE,24,0.0,0.0,77,0.00,,,0.00,VWS V14.00,2013-01-20 16:24:00,
2013-01-20 08:30:00,27.0,20.7,17.72,NNE,24,0.0,0.0,77,0.00,,,0.00,VWS V14.00,2013-01-20 16:30:00,
2013-01-20 08:35:00,27.0,20.7,17.72,NNE,24,0.0,0.0,77,0.00,,,0.00,VWS V14.00,2013-01-20 16:35:00,
2013-01-20 08:41:00,27.1,20.9,17.72,NNE,24,0.0,0.0,77,0.00,,,0.00,VWS V14.00,2013-01-20 16:41:00,
2013-01-20 08:46:00,27.1,20.9,17.72,NNE,24,0.0,0.0,77,0.00,,,0.00,VWS V14.00,2013-01-20 16:46:00,
2013-01-20 08:52:00,27.3,21.1,17.72,NNE,24,0.0,0.0,77,0.00,,,0.00,VWS V14.00,2013-01-20 16:52:00,
2013-01-20 08:57:00,27.3,21.1,17.72,NNE,24,0.0,0.0,77,0.00,,,0.00,VWS V14.00,2013-01-20 16:57:00,
2013-01-20 09:03:00,27.5,21.2,17.72,NNE,24,0.0,0.0,77,0.00,,,0.00,VWS V14.00,2013-01-20 17:03:00,
2013-01-20 09:08:00,27.7,21.4,17.72,NNE,24,0.0,0.0,77,0.00,,,0.00,VWS V14.00,2013-01-20 17:08:00,
2013-01-20 09:14:00,27.7,21.4,17.72,NNE,24,0.0,0.0,77,0.00,,,0.00,VWS V14.00,2013-01-20 17:14:00,
2013-01-20 09:19:00,27.9,21.6,17.72,NNE,24,0.0,0.0,77,0.00,,,0.00,VWS V14.00,2013-01-20 17:19:00,
2013-01-20 09:24:00,27.9,21.6,17.72,NNE,24,0.0,0.0,77,0.00,,,0.00,VWS V14.00,2013-01-20 17:24:00,
2013-01-20 09:30:00,28.0,21.8,17.72,NNE,24,0.0,0.0,77,0.00,,,0.00,VWS V14.00,2013-01-20 17:30:00,
2013-01-20 09:35:00,28.4,22.1,17.72,NNE,24,0.0,0.0,77,0.00,,,0.00,VWS V14.00,2013-01-20 17:35:00,
2013-01-20 09:40:00,28.6,22.3,17.72,NNE,24,0.0,0.0,77,0.00,,,0.00,VWS V14.00,2013-01-20 17:40:00,
2013-01-20 09:45:00,28.9,22.6,17.72,NNE,24,0.0,0.0,77,0.00,,,0.00,VWS V14.00,2013-01-20 17:45:00,
2013-01-20 09:51:00,29.3,23.0,17.72,NNE,24,0.0,0.0,77,0.00,,,0.00,VWS V14.00,2013-01-20 17:51:00,
2013-01-20 09:56:00,29.5,23.2,17.72,NNE,24,0.0,0.0,77,0.00,,,0.00,VWS V14.00,2013-01-20 17:56:00,
2013-01-20 10:02:00,29.8,23.5,17.72,NNE,24,0.0,0.0,77,0.00,,,0.00,VWS V14.00,2013-01-20 18:02:00,
2013-01-20 10:07:00,30.2,23.9,17.72,NNE,24,0.0,0.0,77,0.00,,,0.00,VWS V14.00,2013-01-20 18:07:00,
2013-01-20 10:12:00,30.2,23.9,17.72,NNE,24,0.0,0.0,77,0.00,,,0.00,VWS V14.00,2013-01-20 18:12:00,
2013-01-20 10:17:00,30.2,23.9,17.72,NNE,24,0.0,0.0,77,0.00,,,0.00,VWS V14.00,2013-01-20 18:17:00,
2013-01-20 10:23:00,30.4,24.0,17.72,NNE,24,0.0,0.0,77,0.00,,,0.00,VWS V14.00,2013-01-20 18:23:00,
2013-01-20 10:28:00,30.6,24.2,17.72,NNE,24,0.0,0.0,77,0.00,,,0.00,VWS V14.00,2013-01-20 18:28:00,
2013-01-20 10:34:00,30.7,24.4,17.72,NNE,24,0.0,0.0,77,0.00,,,0.00,VWS V14.00,2013-01-20 18:34:00,
2013-01-20 10:40:00,30.9,24.6,17.72,NNE,24,0.0,0.0,77,0.00,,,0.00,VWS V14.00,2013-01-20 18:40:00,
2013-01-20 10:45:00,31.1,24.8,17.72,NNE,24,0.0,0.0,77,0.00,,,0.00,VWS V14.00,2013-01-20 18:45:00,
2013-01-20 10:51:00,31.1,24.8,17.72,NNE,24,0.0,0.0,77,0.00,,,0.00,VWS V14.00,2013-01-20 18:51:00,
2013-01-20 10:56:00,31.1,24.8,17.72,NNE,24,0.0,0.0,77,0.00,,,0.00,VWS V14.00,2013-01-20 18:56:00,
2013-01-20 11:02:00,31.1,24.8,17.72,NNE,24,0.0,0.0,77,0.00,,,0.00,VWS V14.00,2013-01-20 19:02:00,
2013-01-20 11:08:00,31.3,24.9,17.72,NNE,24,0.0,0.0,77,0.00,,,0.00,VWS V14.00,2013-01-20 19:08:00,
2013-01-20 11:13:00,31.3,24.9,17.72,NNE,24,0.0,0.0,77,0.00,,,0.00,VWS V14.00,2013-01-20 19:13:00,
2013-01-20 11:18:00,31.6,25.3,17.72,NNE,24,0.0,0.0,77,0.00,,,0.00,VWS V14.00,2013-01-20 19:18:00,
2013-01-20 11:23:00,31.8,25.4,17.72,NNE,24,0.0,0.0,77,0.00,,,0.00,VWS V14.00,2013-01-20 19:23:00,
2013-01-20 11:29:00,32.0,25.6,17.72,NNE,24,0.0,0.0,77,0.00,,,0.00,VWS V14.00,2013-01-20 19:29:00,
2013-01-20 11:34:00,32.2,25.8,17.72,NNW,343,3.1,3.1,77,0.00,,,0.00,VWS V14.00,2013-01-20 19:34:00,
2013-01-20 11:40:00,32.4,26.0,17.72,North,353,0.0,0.0,77,0.00,,,0.00,VWS V14.00,2013-01-20 19:40:00,
2013-01-20 11:45:00,32.5,26.1,17.72,North,353,0.0,0.0,77,0.00,,,0.00,VWS V14.00,2013-01-20 19:45:00,
2013-01-20 11:51:00,32.7,26.3,17.72,North,353,0.0,0.0,77,0.00,,,0.00,VWS V14.00,2013-01-20 19:51:00,
2013-01-20 11:57:00,32.7,26.3,17.72,North,353,0.0,0.0,77,0.00,,,0.00,VWS V14.00,2013-01-20 19:57:00,
2013-01-20 12:02:00,32.9,26.5,17.72,North,353,0.0,0.0,77,0.00,,,0.00,VWS V14.00,2013-01-20 20:02:00,
2013-01-20 12:07:00,33.1,26.7,17.72,North,353,2.2,2.2,77,0.00,,,0.00,VWS V14.00,2013-01-20 20:07:00,
2013-01-20 12:12:00,33.1,26.7,17.72,North,353,0.0,0.0,77,0.00,,,0.00,VWS V14.00,2013-01-20 20:12:00,
2013-01-20 12:18:00,33.3,26.8,17.72,North,353,0.0,2.7,77,0.00,,,0.00,VWS V14.00,2013-01-20 20:18:00,
2013-01-20 12:23:00,33.3,26.8,17.72,North,353,0.0,0.0,77,0.00,,,0.00,VWS V14.00,2013-01-20 20:23:00,
2013-01-20 12:29:00,33.6,27.2,17.72,SW,234,0.0,0.0,77,0.00,,,0.00,VWS V14.00,2013-01-20 20:29:00,
2013-01-20 12:34:00,33.6,27.2,17.72,SW,234,0.0,0.0,77,0.00,,,0.00,VWS V14.00,2013-01-20 20:34:00,
2013-01-20 12:40:00,33.8,27.4,17.72,NNW,338,0.0,0.0,77,0.00,,,0.00,VWS V14.00,2013-01-20 20:40:00,
2013-01-20 12:45:00,33.8,27.4,17.72,NNW,338,0.0,0.0,77,0.00,,,0.00,VWS V14.00,2013-01-20 20:45:00,
2013-01-20 12:51:00,34.0,27.5,17.72,NNW,338,0.0,0.0,77,0.00,,,0.00,VWS V14.00,2013-01-20 20:51:00,
2013-01-20 12:56:00,34.0,27.5,17.72,NNW,338,0.0,0.0,77,0.00,,,0.00,VWS V14.00,2013-01-20 20:56:00,
2013-01-20 13:01:00,34.2,27.7,17.72,NNW,338,0.0,0.0,77,0.00,,,0.00,VWS V14.00,2013-01-20 21:01:00,
2013-01-20 13:07:00,34.3,27.9,17.72,NNW,338,0.0,0.0,77,0.00,,,0.00,VWS V14.00,2013-01-20 21:07:00,
2013-01-20 13:12:00,34.3,27.9,17.72,NNW,338,0.0,0.0,77,0.00,,,0.00,VWS V14.00,2013-01-20 21:12:00,
2013-01-20 13:17:00,34.3,27.9,17.72,NNW,338,0.0,0.0,77,0.00,,,0.00,VWS V14.00,2013-01-20 21:17:00,
2013-01-20 13:22:00,34.3,27.9,17.72,NNW,338,0.0,0.0,77,0.00,,,0.00,VWS V14.00,2013-01-20 21:22:00,
2013-01-20 13:28:00,34.3,27.9,17.72,NNW,338,0.0,0.0,77,0.00,,,0.00,VWS V14.00,2013-01-20 21:28:00,
2013-01-20 13:33:00,34.3,27.9,17.72,NNW,338,0.0,0.0,77,0.00,,,0.00,VWS V14.00,2013-01-20 21:33:00,
2013-01-20 13:39:00,34.3,27.9,17.72,NNW,338,0.0,0.0,77,0.00,,,0.00,VWS V14.00,2013-01-20 21:39:00,
2013-01-20 13:44:00,34.3,27.9,17.72,NNW,338,0.0,0.0,77,0.00,,,0.00,VWS V14.00,2013-01-20 21:44:00,
2013-01-20 13:50:00,34.5,28.1,17.72,NNW,338,2.7,3.1,77,0.00,,,0.00,VWS V14.00,2013-01-20 21:50:00,
2013-01-20 13:56:00,34.3,27.9,17.72,NNW,338,0.0,0.0,77,0.00,,,0.00,VWS V14.00,2013-01-20 21:56:00,
2013-01-20 14:01:00,34.3,27.9,17.72,NNW,338,0.0,0.0,77,0.00,,,0.00,VWS V14.00,2013-01-20 22:01:00,
2013-01-20 14:06:00,34.3,27.9,17.72,NNW,338,0.0,0.0,77,0.00,,,0.00,VWS V14.00,2013-01-20 22:06:00,
2013-01-20 14:11:00,34.3,27.9,17.72,NNW,338,0.0,0.0,77,0.00,,,0.00,VWS V14.00,2013-01-20 22:11:00,
2013-01-20 14:17:00,34.5,28.1,17.72,NNW,338,0.0,0.0,77,0.00,,,0.00,VWS V14.00,2013-01-20 22:17:00,
2013-01-20 14:22:00,34.5,28.1,17.72,NNW,338,0.0,0.0,77,0.00,,,0.00,VWS V14.00,2013-01-20 22:22:00,
2013-01-20 14:28:00,34.7,28.2,17.72,NNW,338,0.0,0.0,77,0.00,,,0.00,VWS V14.00,2013-01-20 22:28:00,
2013-01-20 14:33:00,34.9,28.4,17.72,NNW,338,0.0,0.0,77,0.00,,,0.00,VWS V14.00,2013-01-20 22:33:00,
2013-01-20 14:39:00,35.1,28.6,17.72,NNW,338,0.0,0.0,77,0.00,,,0.00,VWS V14.00,2013-01-20 22:39:00,
2013-01-20 14:44:00,35.2,28.8,17.72,NNW,338,0.0,0.0,77,0.00,,,0.00,VWS V14.00,2013-01-20 22:44:00,
2013-01-20 14:50:00,35.2,28.8,17.72,NNW,338,0.0,0.0,77,0.00,,,0.00,VWS V14.00,2013-01-20 22:50:00,
2013-01-20 14:55:00,35.4,28.9,17.72,NNW,338,0.0,0.0,77,0.00,,,0.00,VWS V14.00,2013-01-20 22:55:00,
2013-01-20 15:00:00,35.4,28.9,17.72,NNW,338,0.0,0.0,77,0.00,,,0.00,VWS V14.00,2013-01-20 23:00:00,
2013-01-20 15:06:00,35.2,28.8,17.72,NNW,338,0.0,0.0,77,0.00,,,0.00,VWS V14.00,2013-01-20 23:06:00,
2013-01-20 15:11:00,35.2,28.8,17.72,NNW,338,0.0,0.0,77,0.00,,,0.00,VWS V14.00,2013-01-20 23:11:00,
2013-01-20 15:16:00,35.2,28.8,17.72,NNW,338,0.0,0.0,77,0.00,,,0.00,VWS V14.00,2013-01-20 23:16:00,
2013-01-20 15:21:00,35.2,28.8,17.72,NNW,338,0.0,0.0,77,0.00,,,0.00,VWS V14.00,2013-01-20 23:21:00,
2013-01-20 15:28:00,35.2,28.8,17.72,NNW,338,0.0,0.0,77,0.00,,,0.00,VWS V14.00,2013-01-20 23:28:00,
2013-01-20 15:34:00,35.1,28.6,17.72,NNW,338,0.0,0.0,77,0.00,,,0.00,VWS V14.00,2013-01-20 23:34:00,
2013-01-20 15:39:00,35.1,28.6,17.72,NNW,338,0.0,0.0,77,0.00,,,0.00,VWS V14.00,2013-01-20 23:39:00,
2013-01-20 15:45:00,34.9,28.4,17.72,NNW,338,0.0,0.0,77,0.00,,,0.00,VWS V14.00,2013-01-20 23:45:00,
2013-01-20 15:50:00,34.7,28.2,17.72,NNW,338,0.0,0.0,77,0.00,,,0.00,VWS V14.00,2013-01-20 23:50:00,
2013-01-20 15:56:00,34.5,28.1,17.72,NNW,338,0.0,0.0,77,0.00,,,0.00,VWS V14.00,2013-01-20 23:56:00,
2013-01-20 16:01:00,34.3,27.9,17.72,NNW,338,0.0,0.0,77,0.00,,,0.00,VWS V14.00,2013-01-21 00:01:00,
2013-01-20 16:07:00,34.3,27.9,17.72,NNW,338,0.0,0.0,77,0.00,,,0.00,VWS V14.00,2013-01-21 00:07:00,
2013-01-20 16:13:00,34.3,27.9,17.72,NNW,338,0.0,0.0,77,0.00,,,0.00,VWS V14.00,2013-01-21 00:13:00,
2013-01-20 16:18:00,34.2,27.7,17.72,NNW,338,0.0,0.0,77,0.00,,,0.00,VWS V14.00,2013-01-21 00:18:00,
2013-01-20 16:24:00,34.2,27.7,17.72,NNW,338,0.0,0.0,77,0.00,,,0.00,VWS V14.00,2013-01-21 00:24:00,
2013-01-20 16:29:00,34.2,27.7,17.72,NNW,338,0.0,0.0,77,0.00,,,0.00,VWS V14.00,2013-01-21 00:29:00,
2013-01-20 16:35:00,34.0,27.5,17.72,NNW,338,0.0,0.0,77,0.00,,,0.00,VWS V14.00,2013-01-21 00:35:00,
2013-01-20 16:40:00,34.0,27.5,17.72,NNW,338,0.0,0.0,77,0.00,,,0.00,VWS V14.00,2013-01-21 00:40:00,
2013-01-20 16:45:00,34.0,27.5,17.72,NNW,338,0.0,0.0,77,0.00,,,0.00,VWS V14.00,2013-01-21 00:45:00,
2013-01-20 16:50:00,33.8,27.4,17.72,NNW,338,0.0,0.0,77,0.00,,,0.00,VWS V14.00,2013-01-21 00:50:00,
2013-01-20 16:56:00,33.8,27.4,17.72,NNW,338,0.0,0.0,77,0.00,,,0.00,VWS V14.00,2013-01-21 00:56:00,
2013-01-20 17:03:00,33.6,27.2,17.72,NNW,338,0.0,0.0,77,0.00,,,0.00,VWS V14.00,2013-01-21 01:03:00,
2013-01-20 17:09:00,33.4,27.0,17.72,NNW,338,0.0,0.0,77,0.00,,,0.00,VWS V14.00,2013-01-21 01:09:00,
2013-01-20 17:14:00,33.3,26.8,17.72,NNW,338,0.0,0.0,77,0.00,,,0.00,VWS V14.00,2013-01-21 01:14:00,
2013-01-20 17:20:00,33.1,26.7,17.72,NNW,338,0.0,0.0,77,0.00,,,0.00,VWS V14.00,2013-01-21 01:20:00,
2013-01-20 17:26:00,32.9,26.5,17.72,NNW,338,0.0,0.0,77,0.00,,,0.00,VWS V14.00,2013-01-21 01:26:00,
2013-01-20 17:32:00,32.5,26.1,17.72,NNW,338,0.0,0.0,77,0.00,,,0.00,VWS V14.00,2013-01-21 01:32:00,
2013-01-20 17:38:00,32.4,26.0,17.72,NNW,338,0.0,0.0,77,0.00,,,0.00,VWS V14.00,2013-01-21 01:38:00,
2013-01-20 17:43:00,32.2,25.8,17.72,NNW,338,0.0,0.0,77,0.00,,,0.00,VWS V14.00,2013-01-21 01:43:00,
2013-01-20 17:48:00,32.0,25.6,17.72,NNW,338,0.0,0.0,77,0.00,,,0.00,VWS V14.00,2013-01-21 01:48:00,
2013-01-20 17:54:00,31.8,25.4,17.72,NNW,338,0.0,0.0,77,0.00,,,0.00,VWS V14.00,2013-01-21 01:54:00,
2013-01-20 17:59:00,31.8,25.4,17.72,NNW,338,0.0,0.0,77,0.00,,,0.00,VWS V14.00,2013-01-21 01:59:00,
2013-01-20 18:05:00,31.6,25.3,17.72,NNW,338,0.0,0.0,77,0.00,,,0.00,VWS V14.00,2013-01-21 02:05:00,
2013-01-20 18:10:00,31.6,25.3,17.72,NNW,338,0.0,0.0,77,0.00,,,0.00,VWS V14.00,2013-01-21 02:10:00,
2013-01-20 18:16:00,31.6,25.3,17.72,NNW,338,0.0,0.0,77,0.00,,,0.00,VWS V14.00,2013-01-21 02:16:00,
2013-01-20 18:21:00,31.5,25.1,17.72,NNW,338,0.0,0.0,77,0.00,,,0.00,VWS V14.00,2013-01-21 02:21:00,
2013-01-20 18:27:00,31.5,25.1,17.72,NNW,338,0.0,0.0,77,0.00,,,0.00,VWS V14.00,2013-01-21 02:27:00,
2013-01-20 18:32:00,31.5,25.1,17.72,NNW,338,0.0,0.0,77,0.00,,,0.00,VWS V14.00,2013-01-21 02:32:00,
2013-01-20 18:37:00,31.5,25.1,17.72,NNW,338,0.0,0.0,77,0.00,,,0.00,VWS V14.00,2013-01-21 02:37:00,
2013-01-20 18:43:00,31.3,24.9,17.72,NNW,338,0.0,0.0,77,0.00,,,0.00,VWS V14.00,2013-01-21 02:43:00,
2013-01-20 18:48:00,31.1,24.8,17.72,NNW,338,0.0,0.0,77,0.00,,,0.00,VWS V14.00,2013-01-21 02:48:00,
2013-01-20 18:54:00,31.1,24.8,17.72,NNW,338,0.0,0.0,77,0.00,,,0.00,VWS V14.00,2013-01-21 02:54:00,
2013-01-20 18:59:00,31.1,24.8,17.72,NNW,338,0.0,0.0,77,0.00,,,0.00,VWS V14.00,2013-01-21 02:59:00,
2013-01-20 19:05:00,30.9,24.6,17.72,NNW,338,0.0,0.0,77,0.00,,,0.00,VWS V14.00,2013-01-21 03:05:00,
2013-01-20 19:10:00,30.7,24.4,17.72,NNW,338,0.0,0.0,77,0.00,,,0.00,VWS V14.00,2013-01-21 03:10:00,
2013-01-20 19:16:00,30.6,24.2,17.72,NNW,338,0.0,0.0,77,0.00,,,0.00,VWS V14.00,2013-01-21 03:16:00,
2013-01-20 19:22:00,30.4,24.0,17.72,NNW,338,0.0,0.0,77,0.00,,,0.00,VWS V14.00,2013-01-21 03:22:00,
2013-01-20 19:27:00,30.2,23.9,17.72,NNW,338,0.0,0.0,77,0.00,,,0.00,VWS V14.00,2013-01-21 03:27:00,
2013-01-20 19:33:00,30.2,23.9,17.72,NNW,338,0.0,0.0,77,0.00,,,0.00,VWS V14.00,2013-01-21 03:33:00,
2013-01-20 19:39:00,30.2,23.9,17.72,NNW,338,0.0,0.0,77,0.00,,,0.00,VWS V14.00,2013-01-21 03:39:00,
2013-01-20 19:44:00,30.2,23.9,17.72,NNW,338,0.0,0.0,77,0.00,,,0.00,VWS V14.00,2013-01-21 03:44:00,
2013-01-20 19:50:00,30.0,23.7,17.72,NNW,338,0.0,0.0,77,0.00,,,0.00,VWS V14.00,2013-01-21 03:50:00,
2013-01-20 19:55:00,30.0,23.7,17.72,NNW,338,0.0,0.0,77,0.00,,,0.00,VWS V14.00,2013-01-21 03:55:00,
2013-01-20 20:01:00,29.8,23.5,17.72,NNW,338,0.0,0.0,77,0.00,,,0.00,VWS V14.00,2013-01-21 04:01:00,
2013-01-20 20:06:00,29.8,23.5,17.72,NNW,338,0.0,0.0,77,0.00,,,0.00,VWS V14.00,2013-01-21 04:06:00,
2013-01-20 20:13:00,29.7,23.4,17.72,NNW,338,0.0,0.0,77,0.00,,,0.00,VWS V14.00,2013-01-21 04:13:00,
2013-01-20 20:19:00,29.5,23.2,17.72,NNW,338,0.0,0.0,77,0.00,,,0.00,VWS V14.00,2013-01-21 04:19:00,
2013-01-20 20:25:00,29.5,23.2,17.72,NNW,338,0.0,0.0,77,0.00,,,0.00,VWS V14.00,2013-01-21 04:25:00,
2013-01-20 20:30:00,29.3,23.0,17.72,NNW,338,0.0,0.0,77,0.00,,,0.00,VWS V14.00,2013-01-21 04:30:00,
2013-01-20 20:36:00,29.1,22.8,17.72,NNW,338,0.0,0.0,77,0.00,,,0.00,VWS V14.00,2013-01-21 04:36:00,
2013-01-20 20:41:00,28.9,22.6,17.72,NNW,338,0.0,0.0,77,0.00,,,0.00,VWS V14.00,2013-01-21 04:41:00,
2013-01-20 20:47:00,28.8,22.5,17.72,NNW,338,0.0,0.0,77,0.00,,,0.00,VWS V14.00,2013-01-21 04:47:00,
2013-01-20 20:52:00,28.6,22.3,17.72,NNW,338,0.0,0.0,77,0.00,,,0.00,VWS V14.00,2013-01-21 04:52:00,
2013-01-20 20:58:00,28.6,22.3,17.72,NNW,338,0.0,0.0,77,0.00,,,0.00,VWS V14.00,2013-01-21 04:58:00,
2013-01-20 21:01:00,28.6,22.3,17.72,NNW,338,0.0,0.0,77,0.00,,,0.00,VWS V14.00,2013-01-21 05:01:00,
2013-01-20 21:04:00,28.4,22.1,17.72,NNW,338,0.0,0.0,77,0.00,,,0.00,VWS V14.00,2013-01-21 05:04:00,
2013-01-20 21:05:00,28.4,22.1,17.72,NNW,338,0.0,0.0,77,0.00,,,0.00,VWS V14.00,2013-01-21 05:05:00,
2013-01-20 21:08:00,28.4,22.1,17.72,NNW,338,0.0,0.0,77,0.00,,,0.00,VWS V14.00,2013-01-21 05:08:00,
2013-01-20 21:13:00,28.4,22.1,17.72,NNW,338,0.0,0.0,77,0.00,,,0.00,VWS V14.00,2013-01-21 05:13:00,
2013-01-20 21:18:00,28.4,22.1,17.72,NNW,338,0.0,0.0,77,0.00,,,0.00,VWS V14.00,2013-01-21 05:18:00,
2013-01-20 21:23:00,28.4,22.1,17.72,NNW,338,0.0,0.0,77,0.00,,,0.00,VWS V14.00,2013-01-21 05:23:00,
2013-01-20 21:29:00,28.4,22.1,17.72,NNW,338,0.0,0.0,77,0.00,,,0.00,VWS V14.00,2013-01-21 05:29:00,
2013-01-20 21:34:00,28.4,22.1,17.72,NNW,338,0.0,0.0,77,0.00,,,0.00,VWS V14.00,2013-01-21 05:34:00,
2013-01-20 21:40:00,28.4,22.1,17.72,NNW,338,0.0,0.0,77,0.00,,,0.00,VWS V14.00,2013-01-21 05:40:00,
2013-01-20 21:46:00,28.2,22.0,17.72,NNW,338,0.0,0.0,77,0.00,,,0.00,VWS V14.00,2013-01-21 05:46:00,
2013-01-20 21:52:00,28.2,22.0,17.72,NNW,338,0.0,0.0,77,0.00,,,0.00,VWS V14.00,2013-01-21 05:52:00,
2013-01-20 21:58:00,28.2,22.0,17.72,NNW,338,0.0,0.0,77,0.00,,,0.00,VWS V14.00,2013-01-21 05:58:00,
2013-01-20 22:03:00,28.0,21.8,17.72,NNW,338,0.0,0.0,77,0.00,,,0.00,VWS V14.00,2013-01-21 06:03:00,
2013-01-20 22:08:00,28.0,21.8,17.72,NNW,338,0.0,0.0,77,0.00,,,0.00,VWS V14.00,2013-01-21 06:08:00,
2013-01-20 22:13:00,28.0,21.8,17.72,NNW,338,0.0,0.0,77,0.00,,,0.00,VWS V14.00,2013-01-21 06:13:00,
2013-01-20 22:18:00,28.0,21.8,17.72,NNW,338,0.0,0.0,77,0.00,,,0.00,VWS V14.00,2013-01-21 06:18:00,
2013-01-20 22:24:00,28.0,21.8,17.72,NNW,338,0.0,0.0,77,0.00,,,0.00,VWS V14.00,2013-01-21 06:24:00,
2013-01-20 22:29:00,28.0,21.8,17.72,NNW,338,0.0,0.0,77,0.00,,,0.00,VWS V14.00,2013-01-21 06:29:00,
2013-01-20 22:34:00,28.0,21.8,17.72,NNW,338,0.0,0.0,77,0.00,,,0.00,VWS V14.00,2013-01-21 06:34:00,
2013-01-20 22:39:00,28.0,22.1,17.72,NNW,338,0.0,0.0,78,0.00,,,0.00,VWS V14.00,2013-01-21 06:39:00,
2013-01-20 22:45:00,28.2,22.2,17.72,NNW,338,0.0,0.0,78,0.00,,,0.00,VWS V14.00,2013-01-21 06:45:00,
2013-01-20 22:50:00,28.2,22.2,17.72,NNW,338,0.0,0.0,78,0.00,,,0.00,VWS V14.00,2013-01-21 06:50:00,
2013-01-20 22:56:00,28.4,22.4,17.72,NNW,338,0.0,0.0,78,0.00,,,0.00,VWS V14.00,2013-01-21 06:56:00,
2013-01-20 23:01:00,28.4,22.4,17.72,NNW,338,0.0,0.0,78,0.00,,,0.00,VWS V14.00,2013-01-21 07:01:00,
2013-01-20 23:06:00,28.4,22.4,17.72,NNW,338,0.0,0.0,78,0.00,,,0.00,VWS V14.00,2013-01-21 07:06:00,
2013-01-20 23:12:00,28.6,22.3,17.72,NNW,338,0.0,0.0,77,0.00,,,0.00,VWS V14.00,2013-01-21 07:12:00,
2013-01-20 23:18:00,28.6,22.3,17.72,NNW,338,0.0,0.0,77,0.00,,,0.00,VWS V14.00,2013-01-21 07:18:00,
2013-01-20 23:24:00,28.6,22.3,17.72,NNW,338,0.0,0.0,77,0.00,,,0.00,VWS V14.00,2013-01-21 07:24:00,
2013-01-20 23:29:00,28.6,22.3,17.72,NNW,338,0.0,0.0,77,0.00,,,0.00,VWS V14.00,2013-01-21 07:29:00,
2013-01-20 23:34:00,28.6,22.3,17.72,NNW,338,0.0,0.0,77,0.00,,,0.00,VWS V14.00,2013-01-21 07:34:00,
2013-01-20 23:39:00,28.8,22.5,17.72,NNW,338,0.0,0.0,77,0.00,,,0.00,VWS V14.00,2013-01-21 07:39:00,
2013-01-20 23:45:00,28.8,22.5,17.72,NNW,338,0.0,0.0,77,0.00,,,0.00,VWS V14.00,2013-01-21 07:45:00,
2013-01-20 23:50:00,28.8,22.5,17.72,NNW,338,0.0,0.0,77,0.00,,,0.00,VWS V14.00,2013-01-21 07:50:00,
2013-01-20 23:55:00,28.9,22.6,17.72,NNW,338,0.0,0.0,77,0.00,,,0.00,VWS V14.00,2013-01-21 07:55:00,